OneWeb SL0145

operational
NORAD ID: 47260 Int'l Des: 2020-100 Owner: ONEWEB Country: UK Constellation: oneweb
LEOCIRCULARPOLARONEWEB_TYPE

About OneWeb SL0145

Description loading...

Live Position

Loading 3D Globe...

Upcoming Passes

Altitude History

Altitude vs Time

uPlot chart will show altitude changes over time

Two-Line Element Set

1 47260U 20100C 25351.57232571 .00000093 00000-0 22342-3 0 9998
2 47260 87.8937 26.7143 0001963 89.3389 270.7965 13.12349474240904
Epoch: Dec 17, 2025 • Age: 11 hours

Current Status

Altitude 1226.4 km
Velocity 7.25 km/s
Sub-Earth Point 84.37°N, 55.66°W
Launch Date Dec 18, 2020
Age 4.9 years
Type internet

Technical Details

Classification Payload
Mass 148.00 kg
Dry Mass 140.00 kg
Total Mass 148.00 kg
Length 1.30 m
Diameter 1.00 m
Span 5.00 m
Shape Trapezoid+2 pan
Manufacturer ONEWUS
Bus Type ARROW
Phase Status In Orbit
Owner/State ONEWEB/UK

Large Constellations

Loading constellations...